[[[{"header":{"parameterUnit":"kt","parameterCategory":2,"dx":1,"dy":1,"la1":30.253999710083008,"la2":30.299108505249023,"lo1":-89.0895004272461,"lo2":-89.04439544677734,"nx":28,"ny":28,"refTime":"2022-10-24T21:00:00:Z","depth":0,"parameterNumber":1,"parameterNumberName":"U-component_of_WINDS"},"data":[1.5881,1.5893,1.5902,1.592,1.5931,1.5945,1.5953,1.5964,1.5975,1.5994,1.6006,1.6016,1.603,1.6047,1.6061,1.6065,1.607,1.607,1.6074,1.6071,1.6071,1.6071,1.6068,1.6071,1.6071,1.6077,1.6077,1.6077,1.5881,1.5892,1.5904,1.5921,1.5932,1.5938,1.5952,1.5961,1.5973,1.5987,1.5998,1.6015,1.6029,1.6044,1.6059,1.6066,1.6069,1.6069,1.6068,1.6071,1.6067,1.6064,1.6067,1.6067,1.6067,1.6067,1.6067,1.6067,1.5884,1.5891,1.5906,1.5919,1.5929,1.5941,1.5949,1.596,1.5972,1.5988,1.5995,1.6009,1.6024,1.6045,1.6054,1.6066,1.6067,1.6069,1.6069,1.607,1.6069,1.6061,1.6069,1.6069,1.6069,1.6069,1.6069,0,1.5889,1.5895,1.5906,1.592,1.593,1.5941,1.5953,1.5958,1.5973,1.5982,1.5995,1.6004,1.6023,1.6036,1.6051,1.606,1.6066,1.6068,1.6069,1.6065,1.6061,1.6064,1.6058,1.6066,1.6067,1.6067,1.6067,1.6067,1.5892,1.5898,1.5917,1.5924,1.5932,1.5942,1.595,1.5963,1.5971,1.5987,1.5992,1.6006,1.6017,1.6037,1.6049,1.6062,1.6065,1.6068,1.6066,1.6064,1.6065,1.6064,1.6065,1.6067,1.6067,1.6067,1.6067,0,1.5894,1.5906,1.5918,1.5935,1.5939,1.5945,1.596,1.5967,1.5976,1.5987,1.5991,1.6005,1.6017,1.6029,1.6045,1.6051,1.6063,1.6065,1.6058,1.6059,1.6063,1.6062,1.6072,1.6074,1.6072,1.6072,1.6072,0,1.5901,1.5908,1.5926,1.5932,1.5941,1.5953,1.5961,1.597,1.5981,1.599,1.5999,1.6006,1.6019,1.6029,1.6037,1.6049,1.6052,1.6057,1.6058,1.6055,1.6055,1.6058,1.6058,1.6062,1.6062,1.6062,1.6062,0,1.5901,1.5918,1.5928,1.5934,1.5951,1.5956,1.5964,1.5976,1.5983,1.5994,1.5999,1.6011,1.6017,1.6027,1.6036,1.6035,1.6051,1.6051,1.6055,1.6055,1.6057,1.6056,1.6063,1.6062,1.6062,1.6062,1.6062,0,1.5907,1.5918,1.593,1.5945,1.5949,1.5955,1.5968,1.5976,1.5988,1.5993,1.6001,1.6007,1.6018,1.6018,1.6033,1.6029,1.6035,1.604,1.6041,1.6041,1.604,1.6042,1.6049,1.605,1.6044,1.6044,1.6044,0,1.5905,1.592,1.5929,1.594,1.5948,1.5957,1.5965,1.5974,1.5982,1.599,1.5998,1.6007,1.6009,1.6013,1.6019,1.6028,1.6033,1.6027,1.604,1.604,1.6036,1.6042,1.604,1.6047,1.6042,1.6042,1.6042,0,1.5903,1.5923,1.5924,1.5931,1.5945,1.5951,1.5959,1.597,1.5975,1.5984,1.5992,1.6004,1.6007,1.6013,1.6018,1.6024,1.603,1.6025,1.6025,1.6025,1.6042,1.604,1.6041,1.6033,1.6033,1.6033,1.6041,0,1.5911,1.5919,1.5923,1.5935,1.5942,1.5949,1.5958,1.5964,1.5969,1.5976,1.5986,1.5995,1.6005,1.6009,1.6012,1.6021,1.6021,1.6023,1.6022,1.6026,1.6029,1.603,1.6017,1.6017,1.6017,1.6017,0,0,1.5906,1.5916,1.5924,1.5932,1.5938,1.5945,1.5951,1.5958,1.5969,1.5974,1.5974,1.5992,1.5998,1.6009,1.6011,1.6015,1.6018,1.6015,1.6024,1.6025,1.6025,1.6028,1.6029,1.6017,1.6018,1.6018,1.6018,0,1.591,1.5916,1.5922,1.5929,1.5939,1.5946,1.5947,1.5958,1.5962,1.5972,1.5976,1.5984,1.5996,1.6003,1.6008,1.6015,1.6017,1.6017,1.6018,1.6024,1.6025,1.6025,1.6028,1.6029,1.6018,1.6018,1.6018,0,1.591,1.5918,1.5921,1.5933,1.594,1.5947,1.595,1.5956,1.5962,1.5967,1.5976,1.5982,1.5991,1.6,1.6004,1.6004,1.6016,1.6013,1.6013,1.6013,1.602,1.6021,1.6021,1.6012,1.6012,1.6012,0,0,1.5912,1.5919,1.593,1.5935,1.5939,1.5947,1.5951,1.5956,1.5963,1.5966,1.5973,1.598,1.5988,1.5993,1.6,1.6008,1.6011,1.6012,1.6012,1.6012,1.6013,1.6019,1.602,1.6012,1.6012,1.6012,0,0,1.5913,1.5926,1.5929,1.5935,1.5943,1.5954,1.5956,1.596,1.5967,1.5967,1.5974,1.5976,1.5984,1.5989,1.5985,1.6,1.5999,1.6,1.5996,1.5996,1.5997,1.5995,1.5988,0,0,0,0,0,1.5921,1.5924,1.5927,1.5929,1.5943,1.5953,1.5954,1.596,1.596,1.5963,1.5969,1.5971,1.5989,1.5986,1.5988,1.5991,1.6009,1.6009,1.601,1.6007,1.6007,1.6007,0,0,0,0,0,0,1.5922,1.5925,1.5927,1.5937,1.594,1.5952,1.5954,1.5955,1.596,1.596,1.597,1.5971,1.5976,1.5985,1.5987,1.599,1.5987,1.6009,1.6009,1.601,1.6007,1.6007,1.6007,0,0,0,0,0,1.5923,1.5925,1.5946,1.5937,1.594,1.5949,1.5954,1.5955,1.5959,1.5967,1.5969,1.5962,1.5976,1.5978,1.5986,1.5989,1.5986,1.5986,1.6009,1.601,1.601,1.6007,0,0,0,0,0,0,1.5923,1.5926,1.5946,1.5947,1.5936,1.5948,1.595,1.5955,1.5965,1.5967,1.596,1.5961,1.5976,1.5977,1.5979,1.5988,1.5985,1.5985,1.5986,1.601,1.601,1.601,0,0,0,0,0,0,1.5925,1.5927,1.5947,1.5945,1.5946,1.5948,1.5949,1.5957,1.5965,1.5958,1.5958,1.596,1.5973,1.5977,1.5978,1.599,1.5984,1.5984,1.5985,1.5985,1.601,1.601,0,0,0,0,0,0,1.5926,1.5928,1.5945,1.5945,1.5946,1.5959,1.5954,1.5968,1.5964,1.5957,1.5964,1.5964,1.5973,1.5974,1.5978,1.5989,1.5989,1.5984,1.5984,1.5985,1.5985,0,0,0,0,0,0,0,1.5927,1.5914,1.594,1.5946,1.5946,1.5957,1.5958,1.5958,1.5964,1.5964,1.5964,1.5964,1.598,1.5981,1.5981,1.5988,0,0,1.5984,1.5984,0,0,0,0,0,0,0,0,1.5913,1.5914,1.594,1.594,1.5941,1.5958,1.5958,1.5958,1.5964,1.5964,1.5964,1.5964,1.598,1.5981,1.5981,0,0,0,0,0,0,0,0,0,0,0,0,0,0,0,1.594,1.594,0,1.5958,1.5958,1.5958,1.5964,1.5964,1.5964,1.5964,1.598,1.5981,1.5981,0,0,0,0,0,0,0,0,0,0,0,0,0,0,0,0,0,0,0,0,0,0,0,0,0,0,0,0,0,0,0,0,0,0,0,0,0,0,0,0,0,0,0,0,0,0,0,0,0,0,0,0,0,0,0,0,0,0,0,0,0,0,0,0,0,0,0,0,0]}],[{"header":{"parameterUnit":"kt","parameterCategory":2,"dx":1,"dy":1,"la1":30.253999710083008,"la2":30.299108505249023,"lo1":-89.0895004272461,"lo2":-89.04439544677734,"nx":28,"ny":28,"refTime":"2022-10-24T21:00:00:Z","depth":0,"parameterNumber":2,"parameterNumberName":"V-component_of_WINDS"},"data":[-11.5421,-11.5596,-11.5623,-11.5832,-11.589,-11.6036,-11.6096,-11.6176,-11.6244,-11.6417,-11.652,-11.656,-11.6633,-11.6759,-11.6868,-11.6882,-11.6927,-11.6972,-11.6981,-11.6762,-11.6733,-11.6705,-11.6668,-11.6982,-11.6982,-11.7205,-11.7207,-11.7209,-11.5263,-11.5325,-11.5443,-11.5575,-11.5676,-11.565,-11.5749,-11.5834,-11.5964,-11.6048,-11.615,-11.6303,-11.6424,-11.6482,-11.6602,-11.6679,-11.6671,-11.671,-11.6705,-11.6717,-11.6483,-11.6444,-11.6715,-11.6715,-11.6715,-11.6715,-11.6715,-11.6715,-11.4983,-11.5086,-11.5182,-11.531,-11.5382,-11.5468,-11.5569,-11.5617,-11.5729,-11.586,-11.5864,-11.6008,-11.6093,-11.6245,-11.63,-11.6411,-11.6371,-11.6419,-11.6431,-11.6444,-11.6456,-11.6136,-11.6431,-11.643,-11.643,-11.6429,-11.6429,0,-11.4786,-11.4802,-11.4915,-11.5038,-11.5132,-11.5227,-11.5318,-11.538,-11.5413,-11.5503,-11.5635,-11.5714,-11.5868,-11.5992,-11.6107,-11.6153,-11.613,-11.6128,-11.6162,-11.6164,-11.6154,-11.6164,-11.5784,-11.6119,-11.6116,-11.6114,-11.6113,-11.6112,-11.4507,-11.4623,-11.4732,-11.4809,-11.4865,-11.4986,-11.5063,-11.5083,-11.5163,-11.5274,-11.536,-11.5485,-11.5586,-11.5788,-11.5835,-11.5948,-11.5937,-11.6064,-11.5953,-11.5952,-11.5942,-11.5936,-11.5948,-11.6085,-11.6088,-11.6091,-11.6093,0,-11.4348,-11.4388,-11.4573,-11.4668,-11.4696,-11.4814,-11.4893,-11.4993,-11.5026,-11.5167,-11.5201,-11.5251,-11.5377,-11.5404,-11.555,-11.556,-11.5752,-11.5737,-11.5725,-11.5724,-11.5841,-11.583,-11.6213,-11.6265,-11.5937,-11.5941,-11.5943,0,-11.4125,-11.4274,-11.4325,-11.443,-11.4596,-11.4613,-11.4776,-11.482,-11.4894,-11.5005,-11.4984,-11.5088,-11.5105,-11.5213,-11.5227,-11.5387,-11.5414,-11.5431,-11.5433,-11.5434,-11.5433,-11.5475,-11.546,-11.543,-11.5428,-11.5427,-11.5425,0,-11.3873,-11.4073,-11.4244,-11.4295,-11.4409,-11.4488,-11.4538,-11.462,-11.4693,-11.4791,-11.4838,-11.4949,-11.501,-11.5096,-11.5113,-11.5038,-11.531,-11.5209,-11.5327,-11.5327,-11.5386,-11.5382,-11.5714,-11.5423,-11.5422,-11.5421,-11.5421,0,-11.3699,-11.3803,-11.4045,-11.4139,-11.419,-11.43,-11.4415,-11.4515,-11.4602,-11.462,-11.4696,-11.4684,-11.4825,-11.4725,-11.492,-11.4818,-11.4878,-11.4907,-11.4916,-11.493,-11.4817,-11.5003,-11.5316,-11.5351,-11.4944,-11.494,-11.4936,0,-11.3401,-11.3654,-11.3671,-11.3898,-11.4019,-11.399,-11.4112,-11.419,-11.4223,-11.4327,-11.4361,-11.4478,-11.4409,-11.4449,-11.4542,-11.4581,-11.4714,-11.4563,-11.471,-11.4715,-11.4692,-11.498,-11.5021,-11.5245,-11.4886,-11.4891,-11.4895,0,-11.3175,-11.3313,-11.3352,-11.3412,-11.3519,-11.3618,-11.3758,-11.3879,-11.3948,-11.4035,-11.4153,-11.4315,-11.427,-11.4335,-11.4335,-11.4431,-11.4624,-11.4368,-11.437,-11.4415,-11.4861,-11.49,-11.4938,-11.4603,-11.4609,-11.4614,-11.4855,0,-11.2908,-11.3037,-11.3144,-11.3273,-11.3354,-11.3496,-11.3527,-11.3607,-11.3602,-11.3633,-11.3803,-11.3869,-11.3988,-11.4035,-11.4028,-11.4238,-11.4207,-11.4156,-11.4059,-11.4247,-11.4327,-11.436,-11.3938,-11.3935,-11.3933,-11.3931,0,0,-11.2613,-11.28,-11.2812,-11.2949,-11.3018,-11.2985,-11.3134,-11.3195,-11.332,-11.3367,-11.3314,-11.3553,-11.3607,-11.381,-11.3871,-11.3918,-11.3958,-11.389,-11.4157,-11.4182,-11.4205,-11.4291,-11.4324,-11.3927,-11.3926,-11.3926,-11.3925,0,-11.2523,-11.2586,-11.2734,-11.2801,-11.2898,-11.2925,-11.296,-11.3049,-11.3075,-11.3242,-11.3208,-11.3312,-11.35,-11.3564,-11.3621,-11.3867,-11.3833,-11.39,-11.4024,-11.4133,-11.4161,-11.4186,-11.4276,-11.4307,-11.3919,-11.392,-11.392,0,-11.2306,-11.2375,-11.2449,-11.2604,-11.2666,-11.2788,-11.2697,-11.2828,-11.2918,-11.2868,-11.3033,-11.3073,-11.3159,-11.3346,-11.343,-11.3383,-11.3719,-11.3616,-11.3631,-11.3641,-11.3747,-11.3781,-11.3811,-11.3415,-11.3413,-11.3412,0,0,-11.2223,-11.2343,-11.242,-11.2587,-11.2629,-11.2669,-11.2735,-11.2737,-11.2818,-11.285,-11.29,-11.2977,-11.3087,-11.3158,-11.3262,-11.3462,-11.3481,-11.3553,-11.3577,-11.3596,-11.3616,-11.3728,-11.3761,-11.3405,-11.3404,-11.3404,0,0,-11.2182,-11.2279,-11.226,-11.2458,-11.2539,-11.2622,-11.2721,-11.2699,-11.2796,-11.2782,-11.2785,-11.2806,-11.2981,-11.3019,-11.2924,-11.3228,-11.3132,-11.3155,-11.3196,-11.3227,-11.325,-11.3237,-11.2835,0,0,0,0,0,-11.2105,-11.2268,-11.225,-11.2288,-11.248,-11.2633,-11.2657,-11.2666,-11.26,-11.2679,-11.2717,-11.2677,-11.2969,-11.2885,-11.292,-11.3026,-11.3315,-11.3331,-11.3346,-11.3447,-11.3478,-11.3505,0,0,0,0,0,0,-11.212,-11.2166,-11.2245,-11.2336,-11.2379,-11.2627,-11.2517,-11.2524,-11.2592,-11.2582,-11.2671,-11.2679,-11.2687,-11.2867,-11.2898,-11.2999,-11.2824,-11.3321,-11.3335,-11.3347,-11.3457,-11.3483,-11.3505,0,0,0,0,0,-11.2132,-11.2169,-11.2476,-11.2333,-11.2371,-11.2423,-11.251,-11.2515,-11.2568,-11.2627,-11.2634,-11.2569,-11.269,-11.2717,-11.2886,-11.2985,-11.2803,-11.2814,-11.333,-11.3341,-11.335,-11.347,0,0,0,0,0,0,-11.2141,-11.2173,-11.2483,-11.2495,-11.2273,-11.2409,-11.2431,-11.2509,-11.2608,-11.2617,-11.2524,-11.2515,-11.2694,-11.2714,-11.2735,-11.298,-11.2785,-11.2797,-11.2804,-11.3338,-11.3346,-11.3354,0,0,0,0,0,0,-11.2153,-11.2183,-11.2489,-11.2412,-11.2415,-11.2396,-11.2416,-11.2559,-11.2609,-11.2499,-11.2495,-11.2519,-11.266,-11.2713,-11.2729,-11.2951,-11.2771,-11.2783,-11.2791,-11.2796,-11.3345,-11.3351,0,0,0,0,0,0,-11.2166,-11.2192,-11.2409,-11.2412,-11.2414,-11.2545,-11.2522,-11.2717,-11.2548,-11.2495,-11.2533,-11.2525,-11.2661,-11.2677,-11.2725,-11.2941,-11.2949,-11.2772,-11.2779,-11.2785,-11.2789,0,0,0,0,0,0,0,-11.2176,-11.2002,-11.2415,-11.2411,-11.2413,-11.2603,-11.2606,-11.2609,-11.2546,-11.254,-11.2534,-11.2528,-11.2706,-11.2718,-11.2731,-11.2933,0,0,-11.277,-11.2776,0,0,0,0,0,0,0,0,-11.1991,-11.1999,-11.2415,-11.2418,-11.242,-11.2603,-11.2606,-11.2608,-11.2545,-11.254,-11.2535,-11.2531,-11.2709,-11.2719,-11.273,0,0,0,0,0,0,0,0,0,0,0,0,0,0,0,-11.2415,-11.2418,0,-11.2604,-11.2606,-11.2608,-11.2545,-11.2541,-11.2536,-11.2533,-11.2712,-11.272,-11.2729,0,0,0,0,0,0,0,0,0,0,0,0,0,0,0,0,0,0,0,0,0,0,0,0,0,0,0,0,0,0,0,0,0,0,0,0,0,0,0,0,0,0,0,0,0,0,0,0,0,0,0,0,0,0,0,0,0,0,0,0,0,0,0,0,0,0,0,0,0]}]]]